Weather History for Indiana, PA

Change the Weather History Date:

Wednesday, March 28, 2012

  Actual Average Record
Temperature  
Mean Temperature 55 °F -  
Max Temperature 71 °F 56 °F 79 °F (1989)
Min Temperature 39 °F 31 °F 10 °F (1982)
Degree Days  
Heating Degree Days 10    
Growing Degree Days 5 (Base 50)    
Moisture  
Dew Point 43 °F    
Average Humidity 58    
Maximum Humidity 94    
Minimum Humidity 29    
Precipitation  
Precipitation 0.07 in - - ()
Sea Level Pressure  
Sea Level Pressure 29.80 in    
Wind  
Wind Speed 8 mph (West)    
Max Wind Speed 22 mph    
Max Gust Speed 36 mph    
Visibility 10 miles    
Events      
Averages and records for this station are not official NWS values.
T = Trace of Precipitation, MM = Missing Value Source: NWS Daily Summary

Daily Weather History Graph

Daily Weather History Graph

Search for Another Location

Airport:

Trip Planner

Search our weather history database for the weather conditions in past years. The results will help you decide how hot, cold, wet, or windy it might be!

Date:

Astronomy

Mar. 28, 2012 Rise Set
Actual Time 7:05 AM EDT 7:37 PM EDT
Civil Twilight 6:38 AM EDT 8:04 PM EDT
Nautical Twilight 6:06 AM EDT 8:37 PM EDT
Astronomical Twilight 5:32 AM EDT 9:10 PM EDT
Moon 10:19 AM EDT (3/28) 12:39 AM EDT (3/28)
Length of Visible Light 13h 26m
Length of Day
12h 31m
Waxing Crescent, 30% of the Moon is Illuminated
Mar 28
Waxing Crescent
Mar 30
First Quarter
Apr 6
Full
Apr 13
Last Quarter
Apr 21
New

Hourly Weather History & Observations

Time (EDT) Temp. Windchill Dew Point Humidity Pressure Visibility Wind Dir Wind Speed Gust Speed Precip Events Conditions
12:15 AM 41.0 °F - 26.6 °F 57% 30.04 in 10.0 mi Calm Calm - N/A   Clear
12:35 AM 42.8 °F - 26.6 °F 53% 30.03 in 10.0 mi Calm Calm - N/A   Clear
12:55 AM 42.8 °F - 23.0 °F 46% 30.03 in 10.0 mi Calm Calm - N/A   Clear
1:15 AM 42.8 °F - 26.6 °F 53% 30.02 in 10.0 mi Calm Calm - N/A   Clear
1:35 AM 39.2 °F - 28.4 °F 65% 30.01 in 10.0 mi Calm Calm - N/A   Clear
1:55 AM 41.0 °F - 28.4 °F 61% 30.00 in 10.0 mi Calm Calm - N/A   Clear
2:15 AM 42.8 °F - 26.6 °F 53% 29.99 in 10.0 mi Calm Calm - N/A   Clear
2:35 AM 41.0 °F - 30.2 °F 65% 29.98 in 10.0 mi Calm Calm - N/A   Scattered Clouds
2:55 AM 42.8 °F - 30.2 °F 61% 29.97 in 10.0 mi Calm Calm - N/A   Mostly Cloudy
3:15 AM 42.8 °F - 30.2 °F 61% 29.96 in 10.0 mi Calm Calm - N/A   Mostly Cloudy
3:35 AM 44.6 °F 43.1 °F 26.6 °F 49% 29.95 in 10.0 mi SW 3.5 mph - N/A   Scattered Clouds
8:15 AM 55.4 °F - 35.6 °F 47% 29.83 in 10.0 mi WSW 12.7 mph 17.3 mph N/A   Scattered Clouds
8:35 AM 57.2 °F - 37.4 °F 48% 29.81 in 10.0 mi WSW 11.5 mph 17.3 mph N/A   Mostly Cloudy
8:55 AM 60.8 °F - 41.0 °F 48% 29.82 in 10.0 mi WSW 12.7 mph 16.1 mph N/A   Scattered Clouds
9:15 AM 62.6 °F - 42.8 °F 48% 29.81 in 10.0 mi WSW 20.7 mph 25.3 mph N/A   Clear
9:35 AM 60.8 °F - 44.6 °F 55% 29.83 in 10.0 mi West 17.3 mph 28.8 mph N/A   Scattered Clouds
9:55 AM 57.2 °F - 46.4 °F 67% 29.80 in 10.0 mi West 11.5 mph 23.0 mph N/A   Mostly Cloudy
10:15 AM 57.2 °F - 48.2 °F 72% 29.80 in 10.0 mi WSW 10.4 mph 15.0 mph 0.02 in   Mostly Cloudy
10:35 AM 55.4 °F - 48.2 °F 77% 29.80 in 4.0 mi WSW 10.4 mph 16.1 mph 0.06 in   Overcast
10:55 AM 53.6 °F - 51.8 °F 94% 29.82 in 10.0 mi West 9.2 mph - 0.07 in   Overcast
11:15 AM 55.4 °F - 51.8 °F 88% 29.80 in 10.0 mi WSW 11.5 mph - N/A   Mostly Cloudy
11:35 AM 55.4 °F - 53.6 °F 94% 29.79 in 10.0 mi WSW 11.5 mph - N/A   Scattered Clouds
11:55 AM 57.2 °F - 53.6 °F 88% 29.78 in 10.0 mi SW 9.2 mph - N/A   Mostly Cloudy
12:15 PM 59.0 °F - 55.4 °F 88% 29.77 in 10.0 mi WSW 10.4 mph 16.1 mph N/A   Mostly Cloudy
12:35 PM 60.8 °F - 55.4 °F 82% 29.76 in 10.0 mi WSW 15.0 mph 20.7 mph N/A   Scattered Clouds
12:55 PM 62.6 °F - 55.4 °F 77% 29.75 in 10.0 mi West 16.1 mph 21.9 mph N/A   Clear
1:15 PM 64.4 °F - 55.4 °F 73% 29.74 in 10.0 mi WSW 21.9 mph 27.6 mph N/A   Clear
1:35 PM 66.2 °F - 57.2 °F 73% 29.73 in 10.0 mi West 20.7 mph 26.5 mph N/A   Clear
1:55 PM 66.2 °F - 57.2 °F 73% 29.73 in 10.0 mi West 19.6 mph 26.5 mph N/A   Clear
2:15 PM 66.2 °F - 57.2 °F 73% 29.72 in 10.0 mi West 16.1 mph 25.3 mph N/A   Scattered Clouds
2:35 PM 69.8 °F - 57.2 °F 64% 29.71 in 10.0 mi WSW 16.1 mph 21.9 mph N/A   Scattered Clouds
2:55 PM 69.8 °F - 55.4 °F 60% 29.70 in 10.0 mi West 19.6 mph 24.2 mph N/A   Scattered Clouds
3:15 PM 69.8 °F - 55.4 °F 60% 29.70 in 10.0 mi West 18.4 mph 27.6 mph N/A   Scattered Clouds
3:35 PM 69.8 °F - 53.6 °F 56% 29.68 in 10.0 mi West 19.6 mph 28.8 mph N/A   Scattered Clouds
4:15 PM 69.8 °F - 53.6 °F 56% 29.68 in 10.0 mi West 16.1 mph 25.3 mph N/A   Scattered Clouds
4:35 PM 69.8 °F - 53.6 °F 56% 29.67 in 10.0 mi West 16.1 mph 27.6 mph N/A   Scattered Clouds
4:55 PM 69.8 °F - 51.8 °F 53% 29.66 in 10.0 mi West 17.3 mph 23.0 mph N/A   Mostly Cloudy
5:15 PM 69.8 °F - 51.8 °F 53% 29.66 in 10.0 mi West 17.3 mph 23.0 mph N/A   Scattered Clouds
5:35 PM 69.8 °F - 51.8 °F 53% 29.66 in 10.0 mi WNW 13.8 mph 19.6 mph N/A   Scattered Clouds
5:55 PM 71.6 °F - 39.2 °F 31% 29.67 in 10.0 mi WNW 19.6 mph 27.6 mph N/A   Scattered Clouds
6:15 PM 71.6 °F - 37.4 °F 29% 29.67 in 10.0 mi WNW 16.1 mph 27.6 mph N/A   Clear
6:35 PM 69.8 °F - 37.4 °F 31% 29.68 in 10.0 mi WNW 15.0 mph 24.2 mph N/A   Clear
6:55 PM 69.8 °F - 37.4 °F 31% 29.69 in 10.0 mi WNW 17.3 mph 35.7 mph N/A   Clear
7:15 PM 68.0 °F - 35.6 °F 30% 29.70 in 10.0 mi WNW 18.4 mph 33.4 mph N/A   Clear
7:35 PM 66.2 °F - 35.6 °F 32% 29.71 in 10.0 mi WNW 16.1 mph 29.9 mph N/A   Clear
7:55 PM 66.2 °F - 35.6 °F 32% 29.72 in 10.0 mi WNW 18.4 mph 28.8 mph N/A   Scattered Clouds
8:15 PM 64.4 °F - 35.6 °F 34% 29.73 in 10.0 mi WNW 16.1 mph 25.3 mph N/A   Mostly Cloudy
8:35 PM 62.6 °F - 39.2 °F 42% 29.75 in 10.0 mi NNW 17.3 mph 27.6 mph N/A   Scattered Clouds
8:55 PM 60.8 °F - 39.2 °F 45% 29.77 in 10.0 mi NW 10.4 mph 21.9 mph N/A   Scattered Clouds
9:15 PM 60.8 °F - 42.8 °F 52% 29.78 in 10.0 mi NNW 18.4 mph 28.8 mph N/A   Mostly Cloudy
9:35 PM 60.8 °F - 42.8 °F 52% 29.79 in 10.0 mi NW 12.7 mph 23.0 mph N/A   Overcast
9:55 PM 57.2 °F - 42.8 °F 59% 29.81 in 10.0 mi NNW 13.8 mph 27.6 mph N/A   Overcast
10:15 PM 55.4 °F - 42.8 °F 63% 29.82 in 10.0 mi NNW 17.3 mph 23.0 mph N/A   Overcast
10:35 PM 55.4 °F - 42.8 °F 63% 29.82 in 10.0 mi NNW 12.7 mph 21.9 mph N/A   Overcast
10:55 PM 55.4 °F - 42.8 °F 63% 29.82 in 10.0 mi NW 13.8 mph 20.7 mph N/A   Overcast
11:15 PM 53.6 °F - 42.8 °F 67% 29.82 in 10.0 mi NW 12.7 mph 23.0 mph N/A   Overcast
11:35 PM 53.6 °F - 42.8 °F 67% 29.82 in 10.0 mi WNW 11.5 mph 20.7 mph N/A   Overcast
11:55 PM 51.8 °F - 42.8 °F 71% 29.82 in 10.0 mi WNW 10.4 mph 19.6 mph N/A   Mostly Cloudy